{"data":{"norad_id":67096,"intl_designator":"2025-298X","name":"STARLINK-36228","alt_names":[],"object_type":"PAYLOAD","status":"ACTIVE","operator":null,"country":"US","launch_date":"2025-12-14","launch_site_code":"AFWTR","launch_vehicle":null,"mission":null,"orbit_class":"UNKNOWN","rcs_meters":null,"size_class":null,"mass_kg":null,"dimensions":null,"purposes":["comms"],"wikipedia_slug":null,"has_3d_model":false,"image_url":null,"decayed_at":null,"tle_current":{"epoch":"2026-09-20T08:17:08.527776Z","epoch_age_seconds":92430,"freshness":"FRESH","line1":"1 67096U 25298X   26263.34523759  .00003006  00000+0  25956-3 0  9999","line2":"2 67096  69.9994 243.7020 0004045 267.6952  92.3744 14.98342258 42375","mean_motion":14.98342258,"eccentricity":0.0004045,"inclination_deg":69.9994,"raan_deg":243.702,"arg_perigee_deg":267.6952,"mean_anomaly_deg":92.3744,"bstar":0.00025956,"rev_number":4237,"period_min":96.106212870357,"perigee_km":569.20664665784,"apogee_km":574.82932204018,"semimajor_km":6950.154984349,"source":"CELESTRAK","updated_at":"2026-09-21T09:00:36.101961Z"}}}